Details for EasyJet at LPPR




Go Back


Latest METAR
Local Time

LPPR 160930Z 00000KT 9999 BKN007 OVC009 18/17 Q1017
16/08/2018, 10:49:07

Description
Results
EasyJet Logo
Number of Pilots based at LPPR
1 Pilots Based here
Number of EasyJet Flights Departed from LPPR
2 Flights Departed
Number of EasyJet Flights Arrived at LPPR
0 Flights Arrived
Number of EasyJet Schedules Departing from LPPR
45 Schedules
Number of EasyJet Schedules Arriving at LPPR
48 Schedules
Number of EasyJet Schedules Departing from LPPR availible today
14 Schedules Today
Number of EasyJet Schedules Arriving at LPPR availible today
15 Schedules Today
Average Landing Rate at LPPR
-178 fpm
EasyJet Average Landing Rate at LPPR
0 fpm
Total Fuel Purchased at LPPR by EasyJet
10,775.54 kgs / 23,755.76 lbs

Pilots Based at LPPR


Pilot ID
Pilot Name
Pilot Rank
No. of Flights
No. of Flying Hours
Fernando Só Silva
186
389.43
Content